Regional Weather Roundup
Issued by NWS

Home | Current Version | Previous Version | Graphics & Text | Print | Product List | Glossary On
Versions: 1 2 3 4 5 6 7 8 9 10 11 12 13 14 15 16 17 18 19 20 21 22 23 24 25 26 27 28 29 30 31 32 33 34 35 36 37 38 39 40 41 42 43 44 45 46 47 48 49 50
000
ASUS43 KMKX 290100
RWRWI

WISCONSIN REGIONAL WEATHER ROUNDUP
NATIONAL WEATHER SERVICE MILWAUKEE/SULLIVAN WI
800 PM CDT THU JUL 28 2016

NOTE: "FAIR" INDICATES FEW OR NO CLOUDS BELOW 12,000 FEET WITH NO
SIGNIFICANT WEATHER AND/OR OBSTRUCTIONS TO VISIBILITY.

WIZ001-002-006>008-014>016-023>028-290200-
NORTHWEST WISCONSIN

CITY           SKY/WX    TMP DP  RH WIND       PRES   REMARKS
SUPERIOR ARPT  CLEAR     64  59  86 E6        30.08S
ASHLAND        CLOUDY    66  54  65 NE6       30.09S
HAYWARD        CLEAR     64  53  67 N7        30.07S
SIREN          NOT AVBL
CUMBERLAND     PTCLDY    68  55  64 N10       30.05S
RICE LAKE      MOCLDY    69  59  68 N9        30.05S
CHETEK         CLOUDY    71  62  72 N3        30.03S
LADYSMITH      CLOUDY    70  61  73 N9        30.05S
EAU CLAIRE     NOT AVBL
MENOMONIE      CLOUDY    67  62  82 CALM      30.03S
NEW RICHMOND   CLOUDY    71  57  61 NE7       30.04S
OSCEOLA        CLOUDY    71  57  61 N6        30.07R
$$

WIZ003>005-009-010-017-018-290200-
NORTH CENTRAL WISCONSIN

CITY           SKY/WX    TMP DP  RH WIND       PRES   REMARKS
MANITOWISH WTR MOCLDY    64  55  71 N6        30.08R
ARBOR VITAE    CLOUDY    67  54  62 NE6       30.07R
WOODRUFF       CLOUDY    67  54  62 NE6       30.07R
RHINELANDER    CLOUDY    66  54  65 NE8       30.05S
EAGLE RIVER    PTCLDY    65  51  62 NE5       30.07R
LAND O LAKES   MOCLDY    65  50  60 NE7       30.09S
PHILLIPS       CLEAR     67  58  70 NE9       30.05R
TOMAHAWK       CLOUDY    67  58  73 CALM      30.04S
MEDFORD        CLOUDY    65  65 100 CALM      30.03S
MERRILL        CLOUDY    67  65  91 N3        30.03S
$$

WIZ029-030-035-036-043>047-290200-
CENTRAL WISCONSIN

CITY           SKY/WX    TMP DP  RH WIND       PRES   REMARKS
WAUSAU         CLOUDY    68  63  84 NE3       30.00S
MOSINEE        NOT AVBL
MARSHFIELD     CLOUDY    65  60  84 NE5       30.01R
STEVENS POINT  CLOUDY    63  61  93 CALM      30.01S
WAUPACA        CLOUDY    69  60  73 CALM      29.98F
WAUTOMA        CLOUDY    67  62  84 NE6       29.99R
WISC RAPIDS    CLOUDY    67  58  72 E8        30.01R
CAMP DOUGLAS   NOT AVBL
$$

WIZ011>013-019>022-031-037>040-048>050-290200-
NORTHEAST WISCONSIN

CITY           SKY/WX    TMP DP  RH WIND       PRES   REMARKS
ANTIGO         CLOUDY    66  61  84 CALM      30.04R
SHAWANO        CLOUDY    70  63  78 NE7       30.00S
OCONTO         CLOUDY    67  67 100 CALM      29.99S
STURGEON BAY   CLOUDY    69  61  75 NE8       30.00S
GREEN BAY      CLOUDY    67  64  90 NE10      29.98F
MANITOWOC      NOT AVBL
APPLETON       MOCLDY    68  55  64 NE10      29.97S
CLINTONVILLE   MOCLDY    66  59  77 NE5       29.99F
OSHKOSH        CLOUDY    69  61  75 NE7       29.97S
$$

WIZ032>034-041-042-053>061-290200-
SOUTHWEST WISCONSIN

CITY           SKY/WX    TMP DP  RH WIND       PRES   REMARKS
LA CROSSE      LGT RAIN  66  64  93 N7        29.97S
SPARTA         CLOUDY    62  62  99 N7        29.98S
VIROQUA        CLOUDY    65  65 100 N5        29.97S
BOSCOBEL       CLOUDY    72  68  87 N5        29.93S
PRAIRIE DU CHI RAIN      69  65  90 NW7       29.93R
PLATTEVILLE    CLOUDY    71  69  93 E6        29.93S
$$

WIZ056-057-062-063-064-067-068-290200-
SOUTH CENTRAL WISCONSIN

CITY           SKY/WX    TMP DP  RH WIND       PRES   REMARKS
REEDSBURG      CLOUDY    70  66  86 NE8       29.95R
BARABOO/DELLS  CLOUDY    69  63  80 NE7       29.96R
LONE ROCK      NOT AVBL
MINERAL POINT  LGT RAIN  70  70 100 CALM      29.94S
MADISON        CLOUDY    71  64  78 E10       29.94R
MIDDLETON      CLOUDY    72  67  83 NE8       29.94R
WATERTOWN      CLOUDY    69  65  88 NE9       29.94S
MONROE         MOCLDY    70  64  83 NE9       29.92S
JANESVILLE     MOCLDY    72  68  88 NE9       29.92R
$$

WIZ051-052-058>065-066-070>072-290200-
SOUTHEAST WISCONSIN

CITY           SKY/WX    TMP DP  RH WIND       PRES   REMARKS
MILWAUKEE      MOCLDY    68  64  87 N15       29.93R
WAUKESHA       MOCLDY    66  61  82 NE9G18    29.97R
MILWAUKEE/TIMM CLOUDY    68  61  77 NE8G18    29.96R
RACINE         PTCLDY    67  64  90 N12       29.94S
BURLINGTON     PTCLDY    67  65  91 NE6       29.94R
KENOSHA        CLOUDY    69  66  90 NE9       29.93R
FOND DU LAC    CLOUDY    69  59  70 NE14      29.97S
SHEBOYGAN      CLOUDY    67  57  70 NE14      29.97R
WEST BEND      CLOUDY    66  59  77 NE7       29.97R
JUNEAU         MOCLDY    70  63  79 NE9       29.96S
$$

LSZ147-162-290200-
LAKE SUPERIOR

STATION/POSITION TIME  TEMP    WIND        PRES    WAVE
                       AIR SEA DIR/SP/G            HT/PER
                 (UTC) (F)     (DEG/KT/KT) (MB)    (FT/S)
W MID LAKE BUOY  2350   63 61   90/  4/  6 1018.2S   2/ 4
DEVILS ISLAND    0000   64      90/ 11/ 12 1018.8S
PORT WING        2230   61      20/ 11/ 13 1018.6R
SAXON HARBOR     0000   68      90/  5/ 11 1017.9S
$$

LMZ867-665-643>646-290200-
LAKE MICHIGAN

STATION/POSITION TIME  TEMP    WIND        PRES    WAVE
                       AIR SEA DIR/SP/G            HT/PER
                 (UTC) (F)     (DEG/KT/KT) (MB)    (FT/S)
CHAMBERS ISLAND  0000   72      10/ 19/ 22 1015.6S
N MID LAKE BUOY  2250   71 71   30/  8/ 10 1014.6S   0
NORTHPORT PIER   0000   72      10/ 13/ 18 1015.9R
SISTER BAY       0021   73      20/ 11/ 14   N/A
ALGOMA LAKESHORE 0013           60/  8/ 10   N/A
KEWAUNEE LAKESHO 0000   65                   N/A
SHEBOYGAN LAKESH 0000   62     360/ 17/ 19 1014.6R
PORT WASHINGTON  0040   68      10/  8/ 13 1014.9R
ATWATER BUOY     2300   63 64  340/ 14/ 16 1015.4R
MILWAUKEE LAKESH 0010   66      10/ 13/ 15   N/A
S MID LAKE BUOY  2250   75 77   50/ 14/ 17 1011.5F   2/ 6
KENOSHA   LAKESH 0000   69      20/ 23/ 24 1012.2F
$$

TC  - TEMPERATURE IN CELSIUS
VSB - VISIBILITY IN STATUTE MILES
WCI - WIND CHILL INDEX
HX  - HEAT INDEX





USA.gov is the U.S. government's official web portal to all federal, state and local government web resources and services.